Flag for Venezuela Weather past 2 weeks in Cumaná, Venezuela

Now
82 °F

Passing clouds.


Feels Like: 89 °F
Forecast: 78 / 90 °F
Wind: N/A

Location: Margarita / Del Carib

Current Time: Jan 26, 2015 at 8:46:35 PM

Latest Report: Jan 26, 2015 at 8:30 PM


Visibility: N/A

Pressure: 29.89 "Hg

Humidity: 79%

Dew point: 75 °F

Location of CumanáLocation

Historic Weather in Cumaná — Graph

°F

Cumaná temperature yesterday

Maximum temperature yesterday: 91 °F (at 1:30 PM)
Minimum temperature yesterday: 77 °F (at 5:30 AM)
Average temperature yesterday: 83 °F

Past Weeks' High & Low Weather Summary

 TemperatureHumidityPressure
High93 °F (Jan 14, 2:30 PM)100% (Jan 12, 6:30 AM)30.01 "Hg (Jan 12, 6:30 AM)
Low75 °F (Jan 11, 11:30 PM)41% (Jan 19, 2:30 PM)29.83 "Hg (Jan 14, 3:30 PM)
Average83 °F77%29.92 "Hg
* Reported Jan 11 7:30 PM — Jan 26 7:30 PM, Cumaná, Weather by CustomWeather, © 2014

Note: Actual official high and low records may vary slightly from our data, if they occured in-between our weather recording intervals... More about our weather records

Advertising

Cumaná weather history for previous 24 hours

 ConditionsComfort  
Time TempWeatherWind HumidityBarometerVisibility
7:30 PM
Jan 26
82 °FPassing clouds.N/A79%29.89 "HgN/A
6:30 PM84 °FPassing clouds.N/A66%29.86 "HgN/A
5:30 PM88 °FPassing clouds.N/A55%29.86 "HgN/A
3:30 PM90 °FPassing clouds.N/A52%29.86 "HgN/A
2:30 PM91 °FPassing clouds.N/A49%29.89 "HgN/A
1:30 PM90 °FPassing clouds.N/A52%29.92 "HgN/A
12:30 PM90 °FPassing clouds.N/A59%29.95 "HgN/A
11:30 AM88 °FPassing clouds.N/A62%29.95 "HgN/A
10:30 AM88 °FPassing clouds.N/A62%29.98 "HgN/A
9:30 AM84 °FPassing clouds.N/A66%29.98 "HgN/A
8:30 AM84 °FPassing clouds.N/A74%29.95 "HgN/A
7:30 AM81 °FPassing clouds.N/A79%29.92 "HgN/A
6:30 AM79 °FPassing clouds.N/A84%29.89 "HgN/A
5:30 AM77 °FPassing clouds.N/A94%29.89 "HgN/A
4:30 AM77 °FPassing clouds.N/A94%29.89 "HgN/A
3:30 AM79 °FPassing clouds.N/A89%29.89 "HgN/A
2:30 AM79 °FPassing clouds.N/A89%29.89 "HgN/A
1:30 AM79 °FPassing clouds.N/A89%29.92 "HgN/A
12:30 AM79 °FPassing clouds.N/A89%29.92 "HgN/A
11:30 PM
Jan 25
79 °FPassing clouds.N/A84%29.92 "HgN/A
10:30 PM81 °FPassing clouds.N/A79%29.92 "HgN/A
9:30 PM81 °FPassing clouds.N/A84%29.92 "HgN/A
8:30 PM81 °FPassing clouds.N/A79%29.89 "HgN/A
Weather by CustomWeather, © 2014

See weather overviewHow to use our weather pages